AirNav   ProFlight Series 2 Aviation Headset
 
 323 users online  

7A5 Roanoke Municipal Airport
Roanoke, Alabama, USA

GOING TO ROANOKE?


FAA INFORMATION EFFECTIVE 18 JUNE 2020

Location

FAA Identifier: 7A5
Lat/Long: 33-07-46.8400N 085-22-19.9750W
33-07.780667N 085-22.332917W
33.1296778,-85.3722153
(estimated)
Elevation: 907 ft. / 276 m (estimated)
Variation: 01W (1985)
From city: 2 miles S of ROANOKE, AL
Time zone: UTC -5 (UTC -6 during Standard Time)
Zip code: 36274

Airport Operations

Airport use: Open to the public
Activation date: 10/1961
Control tower: no
ARTCC: ATLANTA CENTER
FSS: ANNISTON FLIGHT SERVICE STATION
NOTAMs facility: ANB (NOTAM-D service available)
Attendance: UNATNDD
Wind indicator: lighted
Segmented circle: no
Lights: ACTVT MIRL RY 12/30 - CTAF.
Beacon: white-green (lighted land airport)
Operates sunset to sunrise.

Airport Communications

CTAF: 122.9
ATLANTA APPROACH: 125.5
ATLANTA DEPARTURE: 125.5
WX AWOS-3 at LGC (17 nm SE): 126.325 (706-845-0677)
  • APCH/DEP SVC PRVDD BY ATLANTA LARGE TRACON 125.5 (0515-2200) OTHER TIMES ATLANTA ARTCC 120.45/357.6 (COLUMBUS RCAG).

Nearby radio navigation aids

VOR radial/distance  VOR name  Freq  Var
LGCr299/9.6LAGRANGE VORTAC115.6001E
CSGr329/35.7COLUMBUS VORTAC117.1001E

 
NDB name  Hdg/Dist  Freq  Var  ID
CARROLLTON209/28.827804WGPQ --. .--. --.-
PINE MOUNTAIN307/30.527203WPIM .--. .. --
COWETA COUNTY260/34.023403WEQQ . --.- --.-

Airport Services

Parking: tiedowns
Airframe service: NONE
Powerplant service: NONE
Bottled oxygen: NONE
Bulk oxygen: NONE

Runway Information

Runway 12/30

Dimensions: 3561 x 80 ft. / 1085 x 24 m
Surface: asphalt, in fair condition
Weight bearing capacity: 
Single wheel: 12.0
Runway edge lights: medium intensity
RUNWAY 12  RUNWAY 30
Latitude: 33-07.894667N33-07.666667N
Longitude: 085-22.654500W085-22.011333W
Elevation: 879.0 ft.904.0 ft.
Traffic pattern: leftleft
Displaced threshold: 379 ft.
RY 12 DSPLCD THL 389 FT FOR NIGHT OPS. RY 12 APCH RATIO 34:1 FOR NIGHT OPS.
453 ft.
RY 30 RELOCATED 146 FT FOR NIGHT OPS.
Markings: basic, in good conditionbasic, in good condition
Visual slope indicator: 2-box VASI on left
VASI RY 12 AND 30 OTS INDEFLY.
2-box VASI on left
Obstructions: 32 ft. pole, 837 ft. from runway, 61 ft. right of centerline, 19:1 slope to clear
APCH RATIO 38:1 TO DSPLCD THLD.
17 ft. road, 249 ft. from runway, 132 ft. left of centerline, 2:1 slope to clear
APCH RATIO 41:1 TO DSPLCD THLD.

Airport Ownership and Management from official FAA records

Ownership: Publicly-owned
Owner: CITY OF ROANOKE
P.O. BOX 1270
ROANOKE, AL 36274
Phone 334-863-4129
Manager: JAMES JOHNSON
P.O. BOX 1270
ROANOKE, AL 36274
Phone 334-338-4240

Airport Operational Statistics

Aircraft based on the field: 11
Single engine airplanes: 10
Multi engine airplanes: 1
    
Aircraft operations: avg 60/week *
71% transient general aviation
29% local general aviation
* for 12-month period ending 15 October 2019

Additional Remarks

FOR ARPT EMERGS CALL (334) 863-2121 (POLICE).
FOR CD CTC ATLANTA APCH AT 678-364-6132, WHEN APCH CLSD CTC ATLANTA ARTCC AT 770-210-7692.

Instrument Procedures

There are no published instrument procedures at 7A5.

Some nearby airports with instrument procedures:

KLGC - LaGrange-Callaway Airport (17 nm SE)
7A3 - Lanett Municipal Airport (20 nm S)
KPIM - Harris County Airport (30 nm SE)
KAUO - Auburn University Regional Airport (31 nm S)
KCTJ - West Georgia Regional Airport-O V Gray Field (32 nm N)
 
Loc | Ops | Rwys | IFR | FBO | Links
Com | Nav | Svcs | Stats | Notes
Area around 7A5 (Roanoke Municipal Airport)
 
Road maps at: MapQuest Bing Google
 
Aerial photo
WARNING: Photo may not be current or correct
Aerial photo of 7A5 (Roanoke Municipal Airport)
Photo by Don Neuberg, courtesy of Outwardbound Photography
Photo taken 22-Jun-2011
looking west.

Do you have a better or more recent aerial photo of Roanoke Municipal Airport that you would like to share? If so, please send us your photo.

 
Sectional chart

 
Airport distance calculator
Flying to Roanoke Municipal Airport? Find the distance to fly.

From to 7A5

Sunrise and sunset
Times for 05-Jul-2020
 Local
(UTC-5)
 Zulu
(UTC)
Morning civil twilight05:1110:11
Sunrise05:3910:39
Sunset19:5300:53
Evening civil twilight20:2101:21

Current date and time
Zulu (UTC)  05-Jul-2020 07:01:41
Local (UTC-5)  05-Jul-2020 02:01:41
 
METAR
KLGC 
17nm SE 
050655Z AUTO 00000KT 5SM BR SCT090 22/22 A2992 RMK AO2 T02240219
KPIM 
30nm SE 
050655Z AUTO 00000KT 10SM BKN080 OVC090 24/22 A2994 RMK AO2 T02440220
KAUO 
31nm S 
050656Z AUTO 00000KT 10SM SCT050 25/22 A2993 RMK AO2 SLP142 T02500222 $
KCTJ 
32nm N 
050655Z AUTO 00000KT 7SM CLR 20/20 A2998 RMK AO2 T02030195
KCCO 
32nm E 
050655Z AUTO 00000KT 7SM CLR 24/23 A2994 RMK AO2 T02410227
KALX 
33nm SW 
050655Z AUTO 05003KT 7SM SCT048 SCT050 SCT070 24/23 A2992 RMK AO2 T02400232
TAF
KANB 
36nm NW 
050520Z 0506/0606 07003KT P6SM SCT150 OVC250 TEMPO 0509/0513 4SM BR FM051800 11006KT P6SM SCT045 PROB30 0518/0524 VRB10G20KT 4SM TSRA BR BKN045CB FM060000 08002KT P6SM FEW250
KCSG 
42nm SE 
050544Z 0506/0606 VRB03KT P6SM FEW060 SCT120 FM051400 11005KT P6SM SCT035 SCT100 FM051700 12007KT P6SM VCSH SCT040 BKN100 PROB30 0518/0524 VRB15G25KT 3SM TSRA BKN030CB FM060200 13003KT P6SM VCSH SCT060 BKN120
KASN 
43nm NW 
050520Z 0506/0606 00000KT 4SM BR SCT150 OVC250 TEMPO 0509/0513 4SM BR FM051800 11006KT P6SM SCT045 PROB30 0518/0524 VRB10G20KT 4SM TSRA BR BKN045CB FM060000 00000KT P6SM FEW250
NOTAMs
Click for the latest NOTAMs
NOTAMs are issued by the DoD/FAA and will open in a separate window not controlled by AirNav.

 

 
 

Would you like to see your business listed on this page?

 If your business provides an interesting product or service to pilots, flight crews, aircraft, or users of the Roanoke Municipal Airport, you should consider listing it here.  To start the listing process, click on the button below
 
Add a business
 

Other Pages about Roanoke Municipal Airport

Update a link
 
Copyright © AirNav, LLC. All rights reserved. Privacy Policy  Contact